[[{"header":{"parameterUnit":"m.s-1","parameterCategory":1,"la1":30.2991,"la2":30.254,"lo1":-89.0895,"lo2":-89.0444,"dy":0.0017,"dx":0.0017,"nx":28,"ny":28,"refTime":"2024-07-07T21:00:00:Z","depth":0,"parameterNumber":2,"parameterNumberName":"U-component_of_WINDS"},"data":[0,0,0,0,0,0,0,0,0,0,0,0,0,0,0,0,0,0,0,0,0,0,0,0,0,0,0,0,0,0,0,0,0,0,0,0,0,0,0,0,0,0,0,0,0,0,0,0,0,0,0,0,0,0,0,0,0,0,-1.2959,-1.2962,0,-1.3196,-1.3199,-1.3202,-1.3331,-1.3331,-1.3332,-1.3332,-1.3579,-1.3585,-1.3592,0,0,0,0,0,0,0,0,0,0,0,0,0,-1.2622,-1.2628,-1.2959,-1.2962,-1.2965,-1.3196,-1.3199,-1.3202,-1.3331,-1.3331,-1.3332,-1.3332,-1.3577,-1.3585,-1.3592,0,0,0,0,0,0,0,0,0,0,0,0,0,-1.2805,-1.263,-1.2958,-1.3057,-1.3068,-1.3195,-1.3199,-1.3203,-1.3331,-1.3331,-1.3332,-1.3332,-1.3575,-1.3584,-1.3593,-1.3642,0,0,-1.3622,-1.3626,0,0,0,0,0,0,0,0,-1.2794,-1.2817,-1.3039,-1.305,-1.3063,-1.3234,-1.3171,-1.3351,-1.3331,-1.3231,-1.3332,-1.3332,-1.3464,-1.3483,-1.3527,-1.3654,-1.3665,-1.3623,-1.3629,-1.3633,-1.3635,0,0,0,0,0,0,0,-1.2782,-1.2808,-1.3053,-1.3042,-1.3057,-1.3091,-1.3117,-1.3206,-1.3342,-1.324,-1.325,-1.3276,-1.3471,-1.3517,-1.3533,-1.3668,-1.3623,-1.3631,-1.3637,-1.3641,-1.385,-1.3849,0,0,0,0,0,0,-1.2752,-1.2796,-1.3046,-1.306,-1.2927,-1.3096,-1.3126,-1.3179,-1.3342,-1.3367,-1.3275,-1.3281,-1.3501,-1.3522,-1.3543,-1.3612,-1.3633,-1.3641,-1.3647,-1.385,-1.385,-1.3849,0,0,0,0,0,0,-1.2745,-1.2773,-1.3036,-1.2931,-1.2967,-1.3102,-1.316,-1.3183,-1.323,-1.3368,-1.3394,-1.3297,-1.3502,-1.3529,-1.3617,-1.3622,-1.3646,-1.3654,-1.385,-1.385,-1.3849,-1.3749,0,0,0,0,0,0,-1.2734,-1.277,-1.2789,-1.293,-1.2972,-1.3104,-1.3161,-1.3188,-1.3245,-1.3255,-1.3396,-1.3419,-1.3504,-1.3602,-1.3626,-1.3635,-1.3662,-1.385,-1.385,-1.385,-1.3753,-1.3746,-1.374,0,0,0,0,0,-1.2722,-1.2752,-1.2789,-1.2818,-1.2998,-1.3104,-1.3128,-1.3224,-1.3245,-1.3266,-1.3355,-1.3415,-1.3617,-1.361,-1.3638,-1.365,-1.385,-1.385,-1.385,-1.3756,-1.3747,-1.374,0,0,0,0,0,0,-1.2609,-1.2772,-1.2815,-1.2891,-1.2983,-1.3126,-1.3155,-1.3212,-1.3301,-1.3306,-1.3423,-1.3454,-1.353,-1.36,-1.3588,-1.3707,-1.374,-1.3745,-1.3659,-1.3652,-1.3646,-1.3627,-1.367,0,0,0,0,0,-1.2592,-1.2663,-1.2803,-1.2857,-1.29,-1.3019,-1.3069,-1.3135,-1.3235,-1.3275,-1.3371,-1.3467,-1.3552,-1.3606,-1.3693,-1.3763,-1.3797,-1.3786,-1.3779,-1.3773,-1.3777,-1.382,-1.3817,-1.3849,-1.3849,-1.3849,0,0,-1.256,-1.2658,-1.2696,-1.2836,-1.2915,-1.2987,-1.3051,-1.3125,-1.318,-1.3287,-1.3375,-1.3448,-1.3563,-1.3643,-1.3683,-1.3703,-1.3775,-1.3773,-1.3767,-1.3774,-1.382,-1.3816,-1.3814,-1.3848,-1.3848,-1.3848,0,0,-1.2538,-1.2618,-1.2672,-1.2749,-1.2867,-1.2946,-1.2958,-1.3093,-1.3146,-1.3236,-1.3317,-1.3386,-1.353,-1.3609,-1.3668,-1.3675,-1.3734,-1.37,-1.3666,-1.3707,-1.3705,-1.3703,-1.3706,-1.3706,-1.3703,-1.3703,-1.3703,0,-1.2483,-1.2593,-1.2693,-1.2762,-1.2822,-1.292,-1.2977,-1.3047,-1.3188,-1.3228,-1.3248,-1.3432,-1.3516,-1.3616,-1.3617,-1.3662,-1.3681,-1.3685,-1.3697,-1.3696,-1.3696,-1.3701,-1.3701,-1.3698,-1.3699,-1.3699,-1.37,0,-1.252,-1.2595,-1.2625,-1.2756,-1.282,-1.2882,-1.2993,-1.3046,-1.3106,-1.3183,-1.3274,-1.3379,-1.3489,-1.3517,-1.3578,-1.3626,-1.3635,-1.3674,-1.371,-1.3687,-1.3693,-1.3695,-1.3691,-1.3693,-1.3694,-1.3696,0,0,-1.2433,-1.2618,-1.2627,-1.2688,-1.2825,-1.2886,-1.2954,-1.3059,-1.3102,-1.3196,-1.3256,-1.3377,-1.3414,-1.3481,-1.3551,-1.3587,-1.3587,-1.3623,-1.3628,-1.3613,-1.3647,-1.3616,-1.3616,-1.3627,-1.3627,-1.3628,-1.3638,0,-1.243,-1.2553,-1.2646,-1.2735,-1.2806,-1.2901,-1.296,-1.3051,-1.3125,-1.3198,-1.3282,-1.3365,-1.3408,-1.3449,-1.3489,-1.3578,-1.3595,-1.3579,-1.3685,-1.3688,-1.3653,-1.3619,-1.3587,-1.3591,-1.364,-1.3641,-1.3641,0,-1.2444,-1.2532,-1.2627,-1.2756,-1.279,-1.2841,-1.2946,-1.3014,-1.312,-1.3172,-1.3245,-1.3318,-1.3395,-1.3423,-1.3532,-1.3518,-1.3568,-1.3618,-1.3621,-1.3634,-1.3663,-1.3632,-1.3594,-1.3595,-1.3646,-1.3646,-1.3645,0,-1.237,-1.2513,-1.2589,-1.2638,-1.2791,-1.2825,-1.2891,-1.2997,-1.3055,-1.3147,-1.3186,-1.3286,-1.3341,-1.3417,-1.3515,-1.3527,-1.3614,-1.365,-1.366,-1.3657,-1.3674,-1.3672,-1.3643,-1.3705,-1.3705,-1.3705,-1.3705,0,-1.2358,-1.2412,-1.2558,-1.2604,-1.2669,-1.2775,-1.2837,-1.2911,-1.3005,-1.3069,-1.3158,-1.3216,-1.3342,-1.3417,-1.3494,-1.3573,-1.3597,-1.3642,-1.3662,-1.3634,-1.3628,-1.3667,-1.367,-1.3705,-1.3705,-1.3705,-1.3705,0,-1.2287,-1.2386,-1.2475,-1.2612,-1.2648,-1.2689,-1.2808,-1.2858,-1.2937,-1.3017,-1.3042,-1.3166,-1.3258,-1.3364,-1.3491,-1.3543,-1.3616,-1.3645,-1.3579,-1.359,-1.3594,-1.3592,-1.3591,-1.3596,-1.3653,-1.3652,-1.3651,0,-1.2272,-1.2316,-1.2457,-1.2505,-1.2568,-1.2644,-1.2703,-1.281,-1.2869,-1.2993,-1.3028,-1.3126,-1.321,-1.3353,-1.3456,-1.3554,-1.3587,-1.3579,-1.3602,-1.3572,-1.3587,-1.3583,-1.3588,-1.3573,-1.3571,-1.357,-1.357,0,-1.2235,-1.2282,-1.2362,-1.246,-1.2527,-1.261,-1.2696,-1.2731,-1.2856,-1.2917,-1.3011,-1.3076,-1.3206,-1.3303,-1.3413,-1.3484,-1.3548,-1.3562,-1.3569,-1.3541,-1.3501,-1.3523,-1.3561,-1.3561,-1.3562,-1.3563,-1.3563,-1.3563,-1.2192,-1.2236,-1.2341,-1.2428,-1.2504,-1.2583,-1.2636,-1.2721,-1.2801,-1.2913,-1.2972,-1.3065,-1.3172,-1.3327,-1.3395,-1.3471,-1.3492,-1.3503,-1.3506,-1.3507,-1.3499,-1.3488,-1.3492,-1.3492,-1.3492,-1.3493,-1.3493,0,-1.216,-1.2233,-1.2311,-1.2428,-1.2497,-1.2549,-1.2648,-1.2703,-1.2783,-1.2876,-1.2957,-1.3065,-1.316,-1.327,-1.3372,-1.3411,-1.3443,-1.3435,-1.3433,-1.3448,-1.3474,-1.3457,-1.3407,-1.3407,-1.3407,-1.3407,-1.3407,-1.3407,-1.2151,-1.2227,-1.2287,-1.2402,-1.2476,-1.2566,-1.2618,-1.2692,-1.2766,-1.2883,-1.2961,-1.3032,-1.3133,-1.3243,-1.3332,-1.3362,-1.3396,-1.3378,-1.3417,-1.3439,-1.3446,-1.3453,-1.3438,-1.3384,-1.3384,-1.3385,-1.3385,-1.3385]},{"header":{"parameterUnit":"m.s-1","parameterCategory":1,"la1":30.2991,"la2":30.254,"lo1":-89.0895,"lo2":-89.0444,"dy":0.0017,"dx":0.0017,"nx":28,"ny":28,"refTime":"2024-07-07T21:00:00:Z","depth":0,"parameterNumber":3,"parameterNumberName":"V-component_of_WINDS"},"data":[0,0,0,0,0,0,0,0,0,0,0,0,0,0,0,0,0,0,0,0,0,0,0,0,0,0,0,0,0,0,0,0,0,0,0,0,0,0,0,0,0,0,0,0,0,0,0,0,0,0,0,0,0,0,0,0,0,0,4.7899,4.7899,0,4.7858,4.7857,4.7857,4.7797,4.7796,4.7795,4.7794,4.7753,4.7753,4.7753,0,0,0,0,0,0,0,0,0,0,0,0,0,4.7928,4.7928,4.7899,4.7899,4.7898,4.7858,4.7857,4.7857,4.7797,4.7796,4.7795,4.7793,4.7753,4.7753,4.7753,0,0,0,0,0,0,0,0,0,0,0,0,0,4.7904,4.7928,4.7899,4.7863,4.786,4.7858,4.7857,4.7857,4.7797,4.7796,4.7794,4.7793,4.7753,4.7753,4.7753,4.7784,0,0,4.7753,4.7753,0,0,0,0,0,0,0,0,4.7906,4.7903,4.7869,4.7866,4.7862,4.7831,4.7853,4.7832,4.7798,4.7821,4.7794,4.7792,4.7781,4.7778,4.7774,4.7782,4.778,4.7753,4.7753,4.7753,4.7753,0,0,0,0,0,0,0,4.7908,4.7905,4.7883,4.7869,4.7864,4.785,4.7845,4.7849,4.781,4.7819,4.7814,4.781,4.7778,4.7774,4.7773,4.778,4.7753,4.7753,4.7753,4.7752,4.7814,4.7815,0,0,0,0,0,0,4.7914,4.7907,4.7884,4.7882,4.788,4.7851,4.7845,4.7842,4.781,4.7804,4.7812,4.7808,4.7775,4.7773,4.7771,4.7806,4.7753,4.7752,4.7752,4.7812,4.7814,4.7816,0,0,0,0,0,0,4.7915,4.7913,4.7886,4.7893,4.7888,4.7852,4.785,4.7842,4.7838,4.7805,4.7798,4.7814,4.7774,4.7771,4.7782,4.7804,4.7752,4.7752,4.781,4.7813,4.7815,4.7877,0,0,0,0,0,0,4.7916,4.7913,4.7924,4.7894,4.7888,4.7896,4.7851,4.7843,4.7838,4.7832,4.7805,4.7799,4.7772,4.7782,4.7781,4.7803,4.7752,4.7808,4.7811,4.7814,4.7872,4.7881,4.7888,0,0,0,0,0,4.7918,4.7943,4.7925,4.7922,4.79,4.7898,4.7895,4.7863,4.784,4.7851,4.783,4.78,4.7802,4.7784,4.7782,4.7804,4.7806,4.781,4.7814,4.7869,4.7879,4.7888,0,0,0,0,0,0,4.7976,4.7938,4.7918,4.7934,4.7919,4.7888,4.79,4.7874,4.7867,4.7862,4.7823,4.7818,4.7834,4.782,4.78,4.7834,4.78,4.7803,4.7842,4.7852,4.7859,4.7863,4.7752,0,0,0,0,0,4.7991,4.7992,4.7958,4.7976,4.797,4.7936,4.7934,4.7911,4.7895,4.7888,4.7868,4.7854,4.7852,4.7851,4.7846,4.787,4.7865,4.7885,4.7893,4.7899,4.7903,4.7917,4.7927,4.7829,4.7829,4.7828,0,0,4.8022,4.8001,4.8004,4.7987,4.7973,4.7976,4.7932,4.7935,4.7937,4.7889,4.7898,4.7883,4.7865,4.7883,4.789,4.7872,4.7929,4.7904,4.791,4.791,4.7922,4.7932,4.794,4.7831,4.7831,4.783,0,0,4.8079,4.8063,4.8076,4.8064,4.8044,4.8022,4.8026,4.7998,4.7986,4.7994,4.7959,4.7961,4.7957,4.7947,4.7941,4.7997,4.7971,4.7997,4.8038,4.8053,4.806,4.8067,4.8089,4.8097,4.8001,4.8001,4.8001,0,4.812,4.8121,4.8087,4.8094,4.8088,4.8045,4.806,4.8049,4.8029,4.8027,4.8007,4.8003,4.7988,4.8004,4.8018,4.8014,4.8018,4.8,4.8062,4.8068,4.8074,4.8094,4.8102,4.8004,4.8004,4.8004,4.8003,0,4.8174,4.8176,4.8189,4.8171,4.8167,4.8178,4.8146,4.8147,4.8125,4.8105,4.8116,4.8096,4.8088,4.809,4.8068,4.8104,4.8094,4.8069,4.8034,4.8087,4.8106,4.8113,4.8009,4.8008,4.8007,4.8006,0,0,4.8266,4.823,4.8236,4.8228,4.8204,4.8205,4.8215,4.8207,4.8209,4.8197,4.8206,4.8204,4.8181,4.8175,4.8152,4.8164,4.8212,4.8137,4.8136,4.8153,4.8253,4.8273,4.8282,4.8195,4.8196,4.8197,4.8255,0,4.8319,4.8333,4.8303,4.8325,4.8327,4.8288,4.8296,4.8283,4.8266,4.8267,4.8248,4.8248,4.8217,4.8213,4.8223,4.8204,4.8232,4.82,4.8203,4.8204,4.821,4.8292,4.8312,4.8368,4.8262,4.8263,4.8264,0,4.8383,4.8375,4.8397,4.8374,4.8374,4.8382,4.8374,4.8374,4.8359,4.8346,4.834,4.8314,4.8323,4.829,4.8303,4.8282,4.8282,4.8273,4.8275,4.8274,4.8238,4.8295,4.8385,4.8394,4.8275,4.8274,4.8273,0,4.845,4.8445,4.8458,4.8453,4.8425,4.8432,4.8421,4.8405,4.8403,4.8396,4.8395,4.8389,4.8387,4.8384,4.8357,4.8335,4.8375,4.8339,4.8366,4.8367,4.8376,4.8376,4.8468,4.8375,4.8375,4.8374,4.8374,0,4.8514,4.8529,4.8488,4.8496,4.8513,4.848,4.8497,4.8483,4.8469,4.8475,4.844,4.8446,4.841,4.8413,4.8392,4.8408,4.8407,4.8397,4.8392,4.8401,4.8403,4.8401,4.8397,4.8377,4.8376,4.8376,4.8375,0,4.8592,4.8564,4.8576,4.855,4.8544,4.8558,4.8536,4.8543,4.8524,4.8532,4.8532,4.8503,4.8505,4.8478,4.8474,4.846,4.8486,4.8473,4.8491,4.8488,4.8517,4.8515,4.8612,4.8624,4.8522,4.8523,4.8524,0,4.8634,4.8645,4.8621,4.8622,4.8613,4.8615,4.8613,4.8581,4.8581,4.8566,4.8576,4.8575,4.8572,4.8578,4.8557,4.8555,4.8542,4.8577,4.8542,4.8552,4.8545,4.8545,4.8547,4.8584,4.8585,4.8586,4.8587,0,4.8713,4.87,4.8698,4.8693,4.8692,4.8686,4.8677,4.8681,4.8646,4.8648,4.8649,4.8648,4.8645,4.8645,4.8639,4.8629,4.8604,4.8599,4.8605,4.8615,4.8626,4.8622,4.8512,4.8596,4.8596,4.8595,4.8594,4.8594,4.8776,4.8785,4.8769,4.8769,4.876,4.8754,4.876,4.8742,4.8743,4.8738,4.8719,4.8725,4.8712,4.8701,4.8694,4.8699,4.8682,4.8691,4.8694,4.8697,4.8703,4.8624,4.8698,4.8697,4.8697,4.8697,4.8697,0,4.8855,4.8843,4.8843,4.8834,4.8834,4.8809,4.88,4.8802,4.8807,4.8797,4.8796,4.8799,4.88,4.878,4.8778,4.8786,4.8775,4.8787,4.8787,4.8785,4.8717,4.8712,4.8797,4.8797,4.8797,4.8797,4.8797,4.8797,4.8896,4.891,4.8895,4.8906,4.8894,4.8899,4.8896,4.8891,4.8883,4.8887,4.8888,4.8875,4.8861,4.8859,4.8859,4.8854,4.8856,4.8872,4.8863,4.88,4.879,4.8781,4.8776,4.8873,4.8873,4.8931,4.8932,4.8932]}]]